Location: Bellmore
(40.6687°N, 73.5271°W)
Time: 13:41:15
(UTC+00:00)

Daily predictions for brighter satellites

Satellite Brightness Start Highest point End
(mag) Time Altitude Azimuth Time Altitude Azimuth Time Altitude Azimuth
SKYMED 2 4.4 22:21:51 10° NE 22:25:43 31° E 22:29:33 10° SSE
Cosmos 2150 Rocket 4.0 22:20:38 10° SSW 22:25:48 88° ESE 22:30:59 10° NNE
Cosmos 1607 4.0 22:21:37 10° SSW 22:27:44 86° ESE 22:33:56 10° NNE
Cosmos 2360 Rocket 3.3 22:23:12 10° NW 22:28:38 50° WSW 22:34:01 10° S
Cosmos 2227 Rocket 3.5 22:29:05 10° SE 22:33:00 20° E 22:36:55 10° NE
COSMOS 2428 2.8 22:30:16 10° NNW 22:35:59 61° ENE 22:41:38 10° SE
Cosmos 2219 Rocket 2.2 22:31:14 10° NNW 22:36:54 64° ENE 22:42:30 10° SE
Cosmos 1812 Rocket 4.0 22:34:09 10° N 22:38:22 39° ENE 22:42:33 10° SSE
Starlink AR 4.3 22:40:23 10° W 22:42:26 21° NNW 22:44:29 10° NNE
YAOGAN 1 3.5 22:40:30 10° SE 22:44:08 27° ENE 22:47:47 10° NNE
Cosmos 1125 Rocket 3.5 22:39:11 10° S 22:44:20 72° ESE 22:49:32 10° NNE
Starlink AQ 4.4 22:42:20 10° W 22:44:50 26° NNW 22:47:20 10° NNE
Starlink BA 4.4 22:44:39 10° W 22:47:05 25° NNW 22:49:33 10° NNE
Starlink AS 4.5 22:44:53 10° W 22:47:21 25° NNW 22:49:49 10° NNE
Cosmos 2184 Rocket 4.3 22:41:35 10° SSW 22:47:43 70° W 22:53:53 10° N
Starlink BB 4.5 22:45:20 10° W 22:47:46 24° NNW 22:50:12 10° NNE
Starlink AU 4.5 22:45:19 10° W 22:47:46 24° NNW 22:50:13 10° NNE
Starlink BC 4.5 22:45:35 10° W 22:48:00 24° NNW 22:50:25 10° NNE
Starlink AT 4.5 22:45:34 10° W 22:48:01 24° NNW 22:50:27 10° NNE
Starlink AY 4.5 22:46:03 10° W 22:48:28 24° NNW 22:50:52 10° NNE
Starlink AW 4.5 22:46:15 10° W 22:48:41 24° NNW 22:51:04 10° NNE
Starlink BK 4.5 22:46:15 10° W 22:48:41 24° NNW 22:51:06 10° NNE
Starlink AV 4.5 22:46:39 10° W 22:49:05 24° NNW 22:51:27 10° NNE
Starlink BD 4.5 22:46:54 10° W 22:49:20 24° NNW 22:51:41 10° NNE
ISS -1.6 22:48:32 10° SSE 22:50:09 13° SE 22:51:19 11° ESE
USA 234 4.0 22:48:19 10° SSE 22:54:44 58° SW 23:01:09 10° NW
CZ-2D R/B 4.3 22:51:51 10° ESE 22:54:53 23° ENE 22:57:56 10° NNE
Cosmos 2154 Rocket 4.0 22:49:16 10° S 22:55:34 84° E 23:01:52 10° N
Envisat 3.2 22:51:50 10° S 22:56:54 78° WSW 23:02:01 10° NNW
Cosmos-2242 4.0 22:54:47 10° NNE 22:58:20 24° ENE 23:01:52 10° SE
Cosmos 1602 Rocket 3.7 22:58:26 10° SSW 23:02:51 77° W 23:07:14 10° N
Cosmos 1269 Rocket 4.3 22:58:24 10° N 23:03:26 43° ENE 23:08:25 10° SE
Cosmos 724 4.4 22:57:43 10° SSW 23:03:34 57° ESE 23:08:44 13° NE
Cosmos 1048 Rocket 4.1 23:02:35 10° NNW 23:07:44 76° WSW 23:12:48 10° SSE
Cosmos 1300 3.0 23:04:17 10° NNW 23:08:05 69° W 23:11:52 10° S
Cosmos 1340 Rocket 2.7 23:05:54 10° N 23:09:52 82° E 23:13:50 10° S
CSL-04 Debris 4.3 23:04:53 10° SE 23:10:04 52° ENE 23:15:18 10° N
Cosmos 1461 3.5 23:07:27 10° NW 23:11:47 64° WSW 23:16:16 10° SSE
COSMO-SKYMED 1 2.7 23:09:34 10° N 23:13:56 76° WNW 23:18:15 10° SSW
Cosmos 1953 Rocket 4.2 23:10:15 10° SSE 23:14:16 34° E 23:16:57 18° NE
ERBS 2.4 23:11:30 10° SSW 23:14:46 54° SE 23:15:55 34° ENE
Okean-O 3.4 23:11:09 10° S 23:15:28 54° W 23:19:50 10° NNW
Meteor 2-10 Rocket 4.0 23:14:20 10° N 23:19:15 35° ENE 23:23:58 10° SE
Cosmos 1758 Rocket 3.4 23:15:20 10° S 23:19:35 67° E 23:23:53 10° NNE
Cosmos 1455 4.2 23:21:08 10° NNE 23:21:54 15° NNE 23:21:54 15° NNE
Cosmos 2333 Rocket 3.2 23:19:17 10° NW 23:24:46 49° WSW 23:30:11 10° S
CZ-4C R/B 3.0 23:17:37 10° NW 23:25:02 87° ENE 23:33:24 10° SSE
Cosmos 1939 Rocket 2.8 23:21:30 10° SSE 23:25:16 52° ENE 23:29:06 10° N
Cosmos 2366 rocket 4.2 23:19:28 10° SSE 23:25:19 46° E 23:31:14 10° NNE
Cosmos 2237 Rocket 2.1 23:20:42 10° NNW 23:26:17 60° ENE 23:31:49 10° SE
Meteor 1-21 Rocket 4.1 23:21:38 10° S 23:27:10 79° E 23:32:51 10° NNE
Cosmos 1626 4.2 23:23:58 10° SW 23:27:12 28° WNW 23:30:27 10° NNW
YAOGAN 6 4.3 23:27:23 10° SSW 23:30:49 36° W 23:34:16 10° NNW
Cosmos 44 3.7 23:30:37 10° S 23:34:50 35° ESE 23:35:01 35° ESE
Cosmos 1932 4.4 23:30:42 10° SSW 23:36:58 70° ESE 23:40:58 24° NE
CSL-04 Rocket 3.7 23:34:07 10° SSE 23:39:35 88° WSW 23:45:09 10° NNW
SL-8 R/B 3.9 23:35:14 10° SW 23:39:54 52° SE 23:40:58 42° E
Ariane Rocket 3.3 23:38:17 29° ESE 23:40:19 42° ENE 23:45:05 10° N
Cosmos 1825 Rocket 3.8 23:41:24 10° SSW 23:45:45 70° W 23:50:05 10° N
Cosmos 494 Rocket 4.4 23:41:15 10° NNW 23:46:18 61° WSW 23:51:19 10° S
SL-16 R/B 2.9 23:41:14 10° N 23:45:41 33° NE 23:45:41 33° NE
Cosmos 2219 3.6 23:42:23 10° SW 23:47:56 61° WNW 23:52:47 14° NNE
ADEOS Rocket 3.2 23:42:29 10° NNE 23:49:00 62° ESE 23:56:10 10° S
CZ-4 R/B 2.8 23:47:22 10° SSW 23:51:06 38° W 23:54:56 10° NNW
Cosmos 2082 3.7 23:46:41 10° S 23:52:07 55° ESE 23:53:14 47° ENE
Cosmos 1727 Rocket 4.1 23:46:24 10° N 23:52:25 50° ENE 23:58:22 10° SSE
